This demonstration page uses our WeatherBlox Daily Observations layout. Learn more.

Left ArrowRight Arrow

31.84235, -102.49876

Hourly Observations for March 10, 2018

Temp ( °F °C ) Dew Point ( °F °C ) Humidity (%) Winds ( mph kmh ) Pressure ( in mb ) Visibility ( mi km ) Precip ( " mm )
12:53 am 00:53 Clear 58 14.4 44 6.7 60 60 SSW 9 15 29.73 1007 10 16 0.00 0.00
1:53 am 01:53 Clear 55 12.8 45 7.2 69 69 SSW 7 11 29.73 1007 10 16 0.00 0.00
2:53 am 02:53 Clear 55 12.8 47 8.3 74 74 S 5 7 29.70 1006 10 16 0.00 0.00
3:53 am 03:53 Clear 47 8.3 41 5 80 80 WNW 6 9 29.72 1006 10 16 0.00 0.00
4:53 am 04:53 Clear 45 7.2 38 3.3 77 77 WSW 5 7 29.74 1007 10 16 0.00 0.00
5:53 am 05:53 Clear 46 7.8 39 3.9 77 77 WSW 5 7 29.75 1007 10 16 0.00 0.00
6:53 am 06:53 Clear 47 8.3 31 -0.6 54 54 SW 7 11 29.75 1008 10 16 0.00 0.00
7:53 am 07:53 Sunny 49 9.4 28 -2.2 44 44 W 6 9 29.78 1008 10 16 0.00 0.00
8:53 am 08:53 Sunny 61 16.1 23 -5 23 23 WSW 6 9 29.77 1008 10 16 0.00 0.00
9:28 am 09:28 Mostly Sunny 69 20.6 16 -8.9 13 13 W 16 26 29.74 1007 10 16 0.00 0.00
9:53 am 09:53 Sunny 73 22.8 13 -10.6 10 10 WNW 16 26 29.78 1008 10 16 0.00 0.00
10:53 am 10:53 Sunny 76 24.4 11 -11.7 8 8 WNW 18 30 29.78 1009 10 16 0.00 0.00
11:53 am 11:53 Sunny 80 26.7 9 -12.8 6 6 WNW 15 24 29.76 1008 10 16 0.00 0.00
12:53 pm 12:53 Sunny 82 27.8 5 -15 5 5 WNW 13 20 29.73 1007 10 16 0.00 0.00
1:53 pm 13:53 Sunny 83 28.3 3 -16.1 4 4 WNW 16 26 29.71 1006 10 16 0.00 0.00
2:53 pm 14:53 Sunny 85 29.4 4 -15.6 4 4 WNW 17 28 29.69 1005 10 16 0.00 0.00
3:53 pm 15:53 Sunny 82 27.8 4 -15.6 5 5 W 14 22 29.68 1005 10 16 0.00 0.00
4:53 pm 16:53 Sunny 81 27.2 5 -15 5 5 W 15 24 29.70 1006 10 16 0.00 0.00
5:53 pm 17:53 Sunny 79 26.1 10 -12.2 7 7 W 9 15 29.71 1006 10 16 0.00 0.00
6:53 pm 18:53 Sunny 76 24.4 19 -7.2 12 12 WSW 6 9 29.72 1007 10 16 0.00 0.00
7:53 pm 19:53 Clear 73 22.8 20 -6.7 13 13 WSW 5 7 29.75 1007 10 16 0.00 0.00
8:53 pm 20:53 Clear 72 22.2 17 -8.3 12 12 W 9 15 29.75 1007 10 16 0.00 0.00
9:53 pm 21:53 Partly Cloudy 72 22.2 17 -8.3 12 12 W 9 15 29.75 1007 10 16 0.00 0.00
10:53 pm 22:53 Mostly Clear 73 22.8 18 -7.8 12 12 W 12 19 29.76 1008 10 16 0.00 0.00
11:53 pm 23:53 Clear 70 21.1 20 -6.7 15 15 W 10 17 29.75 1007 10 16 0.00 0.00

Powered by AerisWeather